DL1GHN-6 Weather Reports


time (UTC)temp
C
wind
direction
speed
KPH
gust
KPH
rain 1hr
cm
rain 24hr
cm
rain mn
cm
humidity
%
barometer
mb
20260504235252 12 148 0.0 1.6 0.00 0.03 0.00 84 1011.7
20260504234750 12 148 0.0 0.0 0.00 0.03 0.00 84 1011.8
20260504234251 12 148 0.0 1.6 0.00 0.03 0.00 84 1011.8
20260504233750 12 148 0.0 1.6 0.00 0.03 0.00 84 1011.9
20260504233250 12 148 0.0 0.0 0.00 0.03 0.00 84 1012.0
20260504232750 12 148 0.0 1.6 0.00 0.03 0.00 83 1012.0
20260504232250 12 148 0.0 1.6 0.00 0.03 0.00 83 1011.9
20260504231751 13 159 0.0 3.2 0.00 0.03 0.00 83 1012.1
20260504231251 13 306 0.0 1.6 0.00 0.03 0.00 82 1012.0
20260504230750 13 306 0.0 3.2 0.00 0.03 0.00 82 1012.0
20260504230251 13 306 0.0 1.6 0.00 0.03 0.00 82 1012.0
20260504225750 13 306 0.0 1.6 0.00 0.03 0.00 82 1012.1
20260504225251 13 297 0.0 3.2 0.00 0.03 0.00 82 1012.1
20260504224751 13 84 1.6 3.2 0.00 0.03 0.00 82 1012.1
20260504224251 13 108 0.0 3.2 0.00 0.03 0.00 82 1012.1
20260504223750 14 92 1.6 3.2 0.00 0.03 0.00 82 1012.1
20260504223251 14 80 0.0 3.2 0.00 0.03 0.00 82 1012.1
20260504222750 14 61 0.0 3.2 0.00 0.03 0.00 82 1012.1
20260504222251 14 84 1.6 4.8 0.00 0.03 0.00 82 1012.1
20260504221751 14 64 0.0 3.2 0.00 0.03 0.00 82 1012.2
20260504221250 14 23 1.6 3.2 0.00 0.03 0.00 82 1012.3
20260504220750 14 360 0.0 3.2 0.00 0.03 0.00 82 1012.3
20260504220250 14 153 1.6 3.2 0.00 0.03 0.00 82 1012.4
20260504215752 14 192 3.2 4.8 0.00 0.03 0.03 82 1012.5
20260504215251 14 103 0.0 1.6 0.00 0.03 0.03 83 1012.5
20260504214752 14 101 1.6 6.4 0.00 0.03 0.03 83 1012.5
20260504214250 14 146 0.0 4.8 0.00 0.03 0.03 83 1012.6
20260504213752 14 155 4.8 6.4 0.00 0.03 0.03 83 1012.7
20260504213251 14 175 3.2 6.4 0.00 0.03 0.03 84 1012.8
20260504212751 13 189 0.0 3.2 0.00 0.03 0.03 84 1012.8
20260504212251 13 158 1.6 4.8 0.00 0.03 0.03 84 1012.8
20260504211750 13 117 0.0 1.6 0.00 0.03 0.03 84 1012.8
20260504211251 13 117 1.6 3.2 0.00 0.03 0.03 84 1012.8
20260504210750 13 126 1.6 3.2 0.00 0.03 0.03 84 1012.8
20260504210250 13 119 0.0 1.6 0.00 0.03 0.03 84 1013.0
20260504205750 13 118 0.0 1.6 0.00 0.03 0.03 84 1012.9
20260504205250 13 119 1.6 1.6 0.00 0.03 0.03 84 1013.0
20260504204751 13 115 0.0 1.6 0.00 0.03 0.03 84 1013.0
20260504204250 13 115 0.0 1.6 0.00 0.03 0.03 83 1013.0
20260504203751 14 115 0.0 1.6 0.00 0.03 0.03 83 1013.0
20260504203251 14 115 0.0 1.6 0.00 0.03 0.03 83 1013.0
20260504202751 14 140 0.0 1.6 0.00 0.03 0.03 83 1013.0
20260504202251 14 140 0.0 1.6 0.00 0.03 0.03 83 1013.0
20260504201750 14 133 0.0 1.6 0.00 0.03 0.03 83 1013.0
20260504201250 14 133 0.0 1.6 0.00 0.03 0.03 83 1013.0
20260504200751 14 141 0.0 3.2 0.00 0.03 0.03 83 1013.0
20260504200251 14 138 1.6 4.8 0.03 0.03 0.03 83 1013.0
20260504195750 14 136 1.6 3.2 0.03 0.03 0.03 82 1013.0
20260504195251 14 148 1.6 3.2 0.03 0.03 0.03 82 1012.9
20260504194751 14 125 0.0 1.6 0.03 0.03 0.03 82 1012.8
20260504194251 14 176 0.0 1.6 0.03 0.03 0.03 81 1012.8
20260504193750 14 160 0.0 3.2 0.03 0.03 0.03 81 1012.7
20260504193251 15 117 3.2 4.8 0.03 0.03 0.03 81 1012.7
20260504192750 15 138 3.2 4.8 0.03 0.03 0.03 80 1012.6
20260504192250 15 136 1.6 6.4 0.03 0.03 0.03 80 1012.5
20260504191750 15 115 0.0 3.2 0.03 0.03 0.03 79 1012.6
20260504191250 15 115 0.0 1.6 0.03 0.03 0.03 79 1012.4
20260504190751 15 123 0.0 3.2 0.03 0.03 0.03 79 1012.4
20260504190250 15 126 1.6 3.2 0.00 0.00 0.00 79 1012.4
20260504185751 15 155 3.2 4.8 0.00 0.00 0.00 79 1012.5
20260504185250 15 179 1.6 3.2 0.00 0.00 0.00 78 1012.5
20260504184750 15 150 1.6 3.2 0.00 0.00 0.00 77 1012.6
20260504184250 15 171 0.0 3.2 0.00 0.00 0.00 77 1012.6
20260504183750 15 89 1.6 4.8 0.00 0.00 0.00 77 1012.8
20260504183251 16 92 4.8 9.7 0.00 0.00 0.00 75 1012.9
20260504182751 16 76 3.2 8.0 0.00 0.00 0.00 75 1012.9
20260504182250 16 128 1.6 3.2 0.00 0.00 0.00 73 1013.0
20260504181752 16 134 0.0 4.8 0.00 0.00 0.00 72 1013.0
20260504181250 16 171 4.8 8.0 0.00 0.00 0.00 71 1013.0
20260504180751 16 186 3.2 6.4 0.00 0.00 0.00 70 1013.0
20260504180251 17 223 0.0 9.7 0.00 0.00 0.00 70 1013.0
20260504175751 17 180 1.6 9.7 0.00 0.00 0.00 68 1013.0
20260504175250 17 179 1.6 12.9 0.00 0.00 0.00 67 1013.0
20260504174751 17 217 4.8 6.4 0.00 0.00 0.00 66 1013.0
20260504174250 17 166 3.2 6.4 0.00 0.00 0.00 64 1013.0
20260504173751 17 226 3.2 11.3 0.00 0.00 0.00 62 1012.9
20260504173251 18 174 4.8 12.9 0.00 0.00 0.00 62 1013.0
20260504172751 18 200 9.7 14.5 0.00 0.00 0.00 61 1013.0
20260504172251 18 205 4.8 9.7 0.00 0.00 0.00 61 1013.0
20260504171750 18 226 3.2 9.7 0.00 0.00 0.00 61 1013.0
20260504171251 18 210 4.8 11.3 0.00 0.00 0.00 61 1013.0
20260504170750 18 224 4.8 9.7 0.00 0.00 0.00 61 1013.0
20260504170250 18 234 4.8 6.4 0.00 0.00 0.00 62 1013.0
20260504160251 19 27 0.0 3.2 0.00 0.00 0.00 55 1012.7
20260504150751 19 321 0.0 4.8 0.00 0.00 0.00 52 1012.8
20260504150251 19 350 1.6 3.2 0.00 0.00 0.00 53 1012.8
20260504141250 20 360 1.6 6.4 0.00 0.00 0.00 52 1012.7
20260504140750 20 323 3.2 4.8 0.00 0.00 0.00 50 1012.7
20260504140250 20 340 1.6 4.8 0.00 0.00 0.00 52 1012.7
20260504130751 21 107 8.0 11.3 0.00 0.00 0.00 48 1012.8
20260504130251 21 291 4.8 11.3 0.00 0.00 0.00 46 1012.8
20260504120251 21 284 1.6 11.3 0.00 0.00 0.00 43 1013.0
20260504110251 21 64 1.6 6.4 0.00 0.00 0.00 44 1013.5
20260504100251 20 311 3.2 6.4 0.00 0.00 0.00 54 1013.8
20260504081750 17 35 3.2 6.4 0.00 0.00 0.00 66 1014.5
20260504081250 16 67 0.0 3.2 0.00 0.00 0.00 68 1014.4
20260504080750 16 348 0.0 4.8 0.00 0.00 0.00 70 1014.4
20260504080251 16 19 0.0 3.2 0.00 0.00 0.00 69 1014.4
20260504070250 12 117 0.0 3.2 0.00 0.00 0.00 79 1013.9
20260504050751 8 47 0.0 3.2 0.00 0.00 0.00 85 1014.1
20260504050250 8 51 0.0 3.2 0.00 0.00 0.00 85 1014.1
20260504045750 8 136 0.0 0.0 0.00 0.00 0.00 85 1014.1
20260504045250 8 136 0.0 3.2 0.00 0.00 0.00 85 1014.1
20260504044750 7 149 0.0 0.0 0.00 0.00 0.00 84 1014.0
20260504044250 7 148 0.0 0.0 0.00 0.00 0.00 84 1014.1
20260504043751 7 144 0.0 1.6 0.00 0.00 0.00 84 1014.1
20260504043250 7 142 0.0 1.6 0.00 0.00 0.00 84 1014.1
20260504042751 7 141 0.0 1.6 0.00 0.00 0.00 83 1014.0
20260504042250 7 146 0.0 0.0 0.00 0.00 0.00 83 1014.0
20260504041750 7 146 0.0 0.0 0.00 0.00 0.00 83 1014.1
20260504041251 8 146 0.0 0.0 0.00 0.00 0.00 83 1014.1
20260504040751 8 146 0.0 1.6 0.00 0.00 0.00 83 1014.0
20260504040250 8 146 0.0 0.0 0.00 0.00 0.00 83 1014.1
20260504035750 8 148 0.0 0.0 0.00 0.00 0.00 83 1014.1
20260504035251 8 153 0.0 1.6 0.00 0.00 0.00 83 1014.1
20260504034750 8 155 1.6 3.2 0.00 0.00 0.00 83 1014.1
20260504034251 8 184 0.0 1.6 0.00 0.00 0.00 82 1014.2
20260504033750 8 186 1.6 3.2 0.00 0.00 0.00 82 1014.2
20260504033250 8 133 0.0 1.6 0.00 0.00 0.00 82 1014.2
20260504032749 8 119 0.0 0.0 0.00 0.00 0.00 82 1014.1
20260504032251 8 119 0.0 1.6 0.00 0.00 0.00 81 1014.2
20260504031521 8 119 0.0 0.0 0.00 0.00 0.00 81 1014.2
20260504031022 8 119 0.0 0.0 0.00 0.00 0.00 81 1014.2
20260504030522 9 119 0.0 1.6 0.00 0.00 0.00 81 1014.2
20260504030021 9 119 0.0 1.6 0.00 0.00 0.00 82 1014.2
20260504025522 9 119 0.0 1.6 0.00 0.00 0.00 82 1014.2
20260504025022 8 119 3.2 3.2 0.00 0.00 0.00 82 1014.2
20260504024521 8 36 0.0 1.6 0.00 0.00 0.00 80 1014.2
20260504024022 9 57 0.0 1.6 0.00 0.00 0.00 80 1014.2
20260504023522 9 55 0.0 3.2 0.00 0.00 0.00 79 1014.2
20260504023022 9 76 0.0 1.6 0.00 0.00 0.00 79 1014.2
20260504022522 9 76 1.6 3.2 0.00 0.00 0.00 79 1014.2
20260504022021 9 88 1.6 1.6 0.00 0.00 0.00 79 1014.1
20260504021522 10 94 0.0 3.2 0.00 0.00 0.00 79 1014.2
20260504021021 10 130 1.6 3.2 0.00 0.00 0.00 79 1014.1
20260504020521 10 130 1.6 3.2 0.00 0.00 0.00 79 1014.2
20260504020020 10 157 1.6 3.2 0.00 0.00 0.00 78 1014.2
20260504015522 10 147 1.6 3.2 0.00 0.00 0.00 78 1014.2
20260504015020 10 139 0.0 3.2 0.00 0.00 0.00 78 1014.2
20260504014521 10 138 3.2 3.2 0.00 0.00 0.00 78 1014.3
20260504014022 10 142 0.0 3.2 0.00 0.00 0.00 77 1014.3
20260504013521 10 162 1.6 3.2 0.00 0.00 0.00 77 1014.3
20260504013022 10 125 1.6 3.2 0.00 0.00 0.00 77 1014.3
20260504012521 10 99 0.0 1.6 0.00 0.00 0.00 77 1014.3
20260504012022 10 95 0.0 1.6 0.00 0.00 0.00 77 1014.3
20260504011520 10 91 0.0 1.6 0.00 0.00 0.00 76 1014.3
20260504011022 10 61 0.0 1.6 0.00 0.00 0.00 75 1014.3
20260504010522 11 56 0.0 1.6 0.00 0.00 0.00 75 1014.3
20260504010021 11 56 1.6 1.6 0.00 0.00 0.00 74 1014.3
20260504005522 11 48 0.0 0.0 0.00 0.00 0.00 74 1014.3
20260504005022 11 48 0.0 1.6 0.00 0.00 0.00 73 1014.4
20260504004522 11 22 0.0 0.0 0.00 0.00 0.00 73 1014.3
20260504004021 11 21 1.6 1.6 0.00 0.00 0.00 72 1014.3
20260504003522 11 306 0.0 1.6 0.00 0.00 0.00 72 1014.3
20260504003022 11 319 0.0 1.6 0.00 0.00 0.00 72 1014.4
20260504002521 12 323 1.6 3.2 0.00 0.00 0.00 71 1014.3
20260504002021 12 335 1.6 3.2 0.00 0.00 0.00 71 1014.4
20260504001522 12 82 0.0 1.6 0.00 0.00 0.00 70 1014.4
20260504001022 12 82 0.0 1.6 0.00 0.00 0.00 69 1014.4
20260504000522 12 82 0.0 3.2 0.00 0.00 0.00 69 1014.3
20260504000022 12 155 0.0 1.6 0.00 0.00 0.00 67 1014.3
20260503235522 13 161 0.0 0.0 0.00 0.00 0.00 66 1014.3